Location: Peebles
(55.6412°N, 3.1714°W)
Time: 09:05:03
(UTC+01:00)

Timation 2 Rocket - Pass Details

Date: 26 September 2021
Orbit: 903 x 1078 km, 70.0° (Epoch: 20 October)

Event Time Altitude Azimuth Distance (km) Brightness Sun altitude
Rises 22:58:52 0° 323° (NW) 3,854 8.3 -30.4°
Reaches altitude 10° 23:01:30 10° 321° (NW) 2,909 7.4 -30.6°
Maximum altitude 23:08:18 66° 241° (WSW) 1,170 4.3 -31.1°
Enters shadow 23:08:23 66° 237° (WSW) 1,171 4.3 -31.1°
